Flag for Pakistan Weather past 2 weeks in Gujranwala, Pakistan

Now
77 °F

Broken clouds.


Feels Like: 78 °F
Forecast: 80 / 90 °F
Wind: 3 mph from Southwest

Location: Lahore Airport

Current Time: Jul 7, 2015 at 8:11:27 AM

Latest Report: Jul 7, 2015 at 7:25 AM


Visibility: 2 mi

Pressure: 29.50 "Hg

Humidity: 89%

Dew point: 73 °F

Location of GujranwalaLocation

Historic Weather in Gujranwala — Graph

°F

Gujranwala temperature yesterday

Maximum temperature yesterday: 93 °F (at 12:25 AM)
Minimum temperature yesterday: 77 °F (at 5:25 AM)
Average temperature yesterday: 87 °F

Past Weeks' High & Low Weather Summary

 TemperatureHumidityPressure
High108 °F (Jun 28, 3:00 PM)100% (Jun 23, 11:25 AM)29.74 "Hg (Jun 23, 11:25 AM)
Low73 °F (Jun 25, 5:00 AM)26% (Jun 28, 4:00 PM)29.36 "Hg (Jun 22, 4:55 PM)
Average90 °F59%29.50 "Hg
* Reported Jun 22 6:30 AM — Jul 7 6:25 AM, Gujranwala, Weather by CustomWeather, © 2015

Note: Actual official high and low records may vary slightly from our data, if they occured in-between our weather recording intervals... More about our weather records

Advertising

Gujranwala weather history for previous 24 hours

 ConditionsComfort  
Time TempWeatherWind HumidityBarometerVisibility
6:25 AM
Tue, Jul 7
77 °FBroken clouds.7 mph89%29.50 "Hg2 mi
5:55 AM75 °FBroken clouds.6 mph94%29.50 "Hg2 mi
5:25 AM75 °FBroken clouds.5 mph94%29.47 "Hg2 mi
4:55 AM77 °FPartly cloudy.5 mph89%29.47 "Hg2 mi
4:25 AM77 °FThundershowers. Mostly cloudy.5 mph94%29.47 "Hg2 mi
3:55 AM77 °FThundershowers. Mostly cloudy.No wind94%29.47 "Hg2 mi
3:25 AM77 °FThundershowers. Mostly cloudy.No wind94%29.47 "Hg2 mi
2:55 AM77 °FThundershowers. Mostly cloudy.5 mph94%29.47 "Hg2 mi
2:25 AM79 °FThundershowers. Mostly cloudy.14 mph89%29.50 "Hg2 mi
1:55 AM79 °FThundershowers. Mostly cloudy.8 mph89%29.50 "Hg2 mi
1:25 AM79 °FThunderstorms. Mostly cloudy.9 mph94%29.47 "Hg2 mi
12:55 AM79 °FThunderstorms. Mostly cloudy.8 mph94%29.50 "Hg1 mi
12:25 AM79 °FThunderstorms. Mostly cloudy.7 mph94%29.53 "Hg1 mi
11:55 PM
Mon, Jul 6
79 °FThunderstorms. Mostly cloudy.8 mph94%29.50 "Hg1 mi
11:25 PM79 °FThunderstorms. Mostly cloudy.7 mph94%29.47 "Hg1 mi
10:55 PM81 °FThunderstorms. Mostly cloudy.14 mph79%29.50 "Hg2 mi
10:25 PM82 °FThunderstorms. Mostly cloudy.14 mph79%29.50 "Hg2 mi
9:55 PM84 °FThunderstorms. Mostly cloudy.14 mph74%29.47 "Hg2 mi
9:25 PM86 °FPartly cloudy.9 mph70%29.45 "Hg2 mi
8:55 PM86 °FPartly cloudy.9 mph70%29.47 "Hg2 mi
8:25 PM88 °FPartly cloudy.7 mph66%29.45 "Hg2 mi
7:55 PM88 °FPartly cloudy.8 mph66%29.45 "Hg2 mi
7:25 PM90 °FPartly cloudy.7 mph59%29.45 "Hg2 mi
6:55 PM90 °FBroken clouds.8 mph63%29.42 "Hg2 mi
6:25 PM90 °FBroken clouds.10 mph59%29.42 "Hg2 mi
5:55 PM90 °FBroken clouds.10 mph59%29.42 "Hg2 mi
5:25 PM90 °FBroken clouds.8 mph59%29.42 "Hg2 mi
4:55 PM90 °FBroken clouds.9 mph59%29.42 "Hg2 mi
4:00 PM91 °FScattered clouds.8 mph52%29.42 "Hg2 mi
3:30 PM91 °FBroken clouds.8 mph52%29.42 "Hg2 mi
3:00 PM91 °FThunderstorms. Broken clouds.8 mph52%29.45 "Hg2 mi
2:25 PM93 °FThunderstorms. Broken clouds.10 mph47%29.45 "Hg2 mi
1:55 PM93 °FThunderstorms. Broken clouds.15 mph47%29.45 "Hg2 mi
1:30 PM93 °FThunderstorms. Broken clouds.9 mph41%29.47 "Hg2 mi
12:55 PM93 °FBroken clouds.5 mph41%29.47 "Hg4 mi
12:30 PM93 °FScattered clouds.7 mph41%29.47 "Hg5 mi
12:00 PM93 °FScattered clouds.9 mph41%29.47 "Hg5 mi
11:25 AM91 °FScattered clouds.9 mph46%29.47 "Hg5 mi
10:55 AM90 °FScattered clouds.10 mph49%29.47 "Hg5 mi
10:25 AM88 °FScattered clouds.10 mph55%29.47 "Hg5 mi
9:55 AM86 °FScattered clouds.10 mph59%29.47 "Hg5 mi
9:25 AM86 °FScattered clouds.12 mph59%29.45 "Hg4 mi
8:55 AM84 °FScattered clouds.12 mph62%29.45 "Hg4 mi
8:25 AM82 °FBroken clouds.10 mph70%29.45 "Hg3 mi
Weather by CustomWeather, © 2015

See weather overviewHow to use our weather pages